Simultaneous Nadir Overpasses (SNOs) Predictions

Prediction of SNOs between GOES-16 and NOAA-20 Satellite Orbit:

Table of predicted SNOs for the next 14.0 days since TLE Epoch: 10/30/2021
Index Date Time (GOES-16) GOES-16 Lat,Lon NOAA-20 Lat,Lon Distance(km) Time Diff (sec)
1 10/30/2021 06:23:26 -0.01, -75.23 -0.03, -75.09 16.23 80
2 11/01/2021 18:26:37 0.01, -75.28 -0.10, -75.86 66.22 80
3 11/02/2021 18:10:32 0.01, -75.30 0.90, -71.33 452.36 80
4 11/04/2021 06:32:18 0.00, -75.31 0.31, -76.58 145.51 80
5 11/05/2021 06:10:54 0.00, -75.33 -0.75, -72.06 373.09 80
6 11/06/2021 18:32:49 -0.01, -75.36 -0.44, -77.36 226.97 80
7 11/07/2021 18:14:03 -0.01, -75.38 0.57, -72.82 291.71 80
8 11/09/2021 06:38:31 0.01, -75.40 0.59, -78.09 305.82 80
9 11/10/2021 06:17:05 0.01, -75.42 -0.42, -73.56 212.89 80
10 11/11/2021 18:41:41 -0.01, -75.46 -0.76, -78.86 386.55 80
11 11/12/2021 18:20:15 -0.01, -75.49 0.25, -74.32 132.99 80
